{"data":{"norad_id":64118,"epoch":"2026-09-20T12:48:03.426336Z","epoch_age_seconds":137551,"freshness":"FRESH","line1":"1 64118U 25110Y   26263.53337299  .00013607  00000+0  44910-3 0  9996","line2":"2 64118  53.1584 200.3314 0000711  81.1070 279.0012 15.31723434 75733","mean_motion":15.31723434,"eccentricity":7.11e-5,"inclination_deg":53.1584,"raan_deg":200.3314,"arg_perigee_deg":81.107,"mean_anomaly_deg":279.0012,"bstar":0.0004491,"rev_number":7573,"period_min":94.011749643311,"perigee_km":470.18319039397,"apogee_km":471.15709076936,"semimajor_km":6848.8071405817,"source":"CELESTRAK","updated_at":"2026-09-21T09:00:35.231253Z"}}